Time,TemperatureF,DewpointF,PressureIn,WindDirection,WindDirectionDegrees,WindSpeedMPH,WindSpeedGustMPH,Humidity,HourlyPrecipIn,Conditions,Clouds,dailyrainin,SoftwareType,DateUTC
2013-03-12 00:00:00,57.7,55.1,29.98,South,173,10.0,12.0,91,0.00,,---,0.00,VWS V14.01,2013-03-12 04:00:00,
2013-03-12 00:05:00,57.7,55.1,29.97,SSE,165,11.0,13.0,91,0.00,,---,0.00,VWS V14.01,2013-03-12 04:05:00,
2013-03-12 00:10:00,57.8,55.2,29.97,SSE,167,10.0,12.0,91,0.00,,---,0.00,VWS V14.01,2013-03-12 04:10:00,
2013-03-12 00:15:00,57.9,55.0,29.97,SSE,164,11.0,12.0,90,0.00,,---,0.00,VWS V14.01,2013-03-12 04:15:00,
2013-03-12 00:20:00,58.1,55.2,29.96,SSE,163,12.0,13.0,90,0.00,,---,0.00,VWS V14.01,2013-03-12 04:20:00,
2013-03-12 00:25:00,58.4,55.5,29.95,SSE,163,16.0,16.0,90,0.00,,---,0.00,VWS V14.01,2013-03-12 04:25:00,
2013-03-12 00:30:00,58.6,55.4,29.95,SSE,166,12.0,13.0,89,0.00,,---,0.00,VWS V14.01,2013-03-12 04:30:00,
2013-03-12 00:35:00,58.3,55.1,29.95,SSE,156,11.0,12.0,89,0.00,,---,0.00,VWS V14.01,2013-03-12 04:35:00,
2013-03-12 00:40:00,58.1,54.9,29.95,SSE,163,11.0,12.0,89,0.00,,---,0.00,VWS V14.01,2013-03-12 04:40:00,
2013-03-12 00:45:00,58.1,54.9,29.95,SSE,165,11.0,12.0,89,0.00,,---,0.00,VWS V14.01,2013-03-12 04:45:00,
2013-03-12 00:50:00,57.9,54.7,29.96,South,171,12.0,12.0,89,0.00,,---,0.00,VWS V14.01,2013-03-12 04:50:00,
2013-03-12 00:55:00,57.8,54.9,29.96,South,178,9.0,11.0,90,0.00,,---,0.00,VWS V14.01,2013-03-12 04:55:00,
2013-03-12 01:00:00,57.7,54.8,29.96,South,173,9.0,11.0,90,0.00,,---,0.00,VWS V14.01,2013-03-12 05:00:00,
2013-03-12 01:05:00,57.6,54.7,29.96,South,174,9.0,11.0,90,0.00,,---,0.00,VWS V14.01,2013-03-12 05:05:00,
2013-03-12 01:10:00,57.5,54.6,29.95,SSE,166,11.0,11.0,90,0.00,,---,0.00,VWS V14.01,2013-03-12 05:10:00,
2013-03-12 01:15:00,57.5,54.6,29.95,South,169,9.0,11.0,90,0.00,,---,0.00,VWS V14.01,2013-03-12 05:15:00,
2013-03-12 01:20:00,57.5,54.9,29.95,South,171,8.0,10.0,91,0.00,,---,0.00,VWS V14.01,2013-03-12 05:20:00,
2013-03-12 01:25:00,57.6,55.0,29.95,South,169,9.0,10.0,91,0.00,,---,0.00,VWS V14.01,2013-03-12 05:25:00,
2013-03-12 01:30:00,57.6,54.7,29.94,SSE,165,8.0,10.0,90,0.00,,---,0.00,VWS V14.01,2013-03-12 05:30:00,
2013-03-12 01:35:00,57.7,54.8,29.95,South,173,9.0,10.0,90,0.00,,---,0.00,VWS V14.01,2013-03-12 05:35:00,
2013-03-12 01:40:00,57.7,54.8,29.95,South,175,9.0,11.0,90,0.00,,---,0.00,VWS V14.01,2013-03-12 05:40:00,
2013-03-12 01:45:00,57.8,54.9,29.95,South,184,10.0,10.0,90,0.00,,---,0.00,VWS V14.01,2013-03-12 05:45:00,
2013-03-12 01:50:00,57.9,55.0,29.95,South,179,11.0,12.0,90,0.00,,---,0.00,VWS V14.01,2013-03-12 05:50:00,
2013-03-12 01:55:00,57.9,55.0,29.94,SSE,166,10.0,12.0,90,0.00,,---,0.00,VWS V14.01,2013-03-12 05:55:00,
2013-03-12 02:00:00,57.8,54.9,29.94,South,169,11.0,13.0,90,0.00,,---,0.00,VWS V14.01,2013-03-12 06:00:00,
2013-03-12 02:05:00,57.8,54.9,29.94,South,178,12.0,13.0,90,0.00,,---,0.00,VWS V14.01,2013-03-12 06:05:00,
2013-03-12 02:10:00,58.0,55.1,29.95,South,183,11.0,12.0,90,0.00,,---,0.00,VWS V14.01,2013-03-12 06:10:00,
2013-03-12 02:15:00,58.1,54.9,29.94,South,173,11.0,13.0,89,0.00,,---,0.00,VWS V14.01,2013-03-12 06:15:00,
2013-03-12 02:19:00,58.3,55.1,29.95,South,174,11.0,14.0,89,0.00,,---,0.00,VWS V14.01,2013-03-12 06:19:00,
2013-03-12 02:24:00,58.5,55.3,29.95,South,171,7.0,12.0,89,0.00,,---,0.00,VWS V14.01,2013-03-12 06:24:00,
2013-03-12 02:29:00,58.7,55.2,29.95,South,176,12.0,15.0,88,0.00,,---,0.00,VWS V14.01,2013-03-12 06:29:00,
2013-03-12 02:34:00,58.6,55.1,29.95,South,175,12.0,13.0,88,0.00,,---,0.00,VWS V14.01,2013-03-12 06:34:00,
2013-03-12 02:39:00,58.5,55.0,29.94,South,171,11.0,13.0,88,0.00,,---,0.00,VWS V14.01,2013-03-12 06:39:00,
2013-03-12 02:44:00,58.4,54.9,29.94,SSE,163,10.0,12.0,88,0.00,,---,0.00,VWS V14.01,2013-03-12 06:44:00,
2013-03-12 02:49:00,58.3,55.1,29.93,SSE,168,11.0,13.0,89,0.00,,---,0.00,VWS V14.01,2013-03-12 06:49:00,
2013-03-12 02:54:00,58.5,55.3,29.93,SSE,166,11.0,13.0,89,0.00,,---,0.00,VWS V14.01,2013-03-12 06:54:00,
2013-03-12 02:59:00,58.4,55.2,29.93,SSE,168,12.0,14.0,89,0.00,,---,0.00,VWS V14.01,2013-03-12 06:59:00,
2013-03-12 03:04:00,58.4,55.2,29.93,South,177,12.0,12.0,89,0.00,,---,0.00,VWS V14.01,2013-03-12 07:04:00,
2013-03-12 03:09:00,58.2,55.0,29.92,South,171,10.0,12.0,89,0.00,,---,0.00,VWS V14.01,2013-03-12 07:09:00,
2013-03-12 03:14:00,58.2,55.0,29.92,South,173,11.0,12.0,89,0.00,,---,0.00,VWS V14.01,2013-03-12 07:14:00,
2013-03-12 03:19:00,58.1,54.9,29.92,South,170,9.0,11.0,89,0.00,,---,0.00,VWS V14.01,2013-03-12 07:19:00,
2013-03-12 03:24:00,58.0,54.8,29.92,South,180,9.0,11.0,89,0.00,,---,0.00,VWS V14.01,2013-03-12 07:24:00,
2013-03-12 03:29:00,58.2,55.3,29.91,South,173,15.0,16.0,90,0.00,,---,0.00,VWS V14.01,2013-03-12 07:29:00,
2013-03-12 03:34:00,58.5,55.3,29.91,South,171,12.0,15.0,89,0.00,,---,0.00,VWS V14.01,2013-03-12 07:34:00,
2013-03-12 03:39:00,58.4,55.2,29.91,South,173,11.0,13.0,89,0.00,,---,0.00,VWS V14.01,2013-03-12 07:39:00,
2013-03-12 03:44:00,58.7,55.5,29.91,South,171,14.0,15.0,89,0.00,,---,0.00,VWS V14.01,2013-03-12 07:44:00,
2013-03-12 03:49:00,58.6,55.4,29.91,South,175,12.0,15.0,89,0.00,,---,0.00,VWS V14.01,2013-03-12 07:49:00,
2013-03-12 03:54:00,58.9,55.7,29.91,SSE,167,15.0,20.0,89,0.00,,---,0.00,VWS V14.01,2013-03-12 07:54:00,
2013-03-12 03:59:00,58.9,55.7,29.91,South,169,15.0,16.0,89,0.00,,---,0.00,VWS V14.01,2013-03-12 07:59:00,
2013-03-12 04:04:00,58.7,55.8,29.91,SSE,168,13.0,16.0,90,0.00,,---,0.00,VWS V14.01,2013-03-12 08:04:00,
2013-03-12 04:09:00,58.5,55.9,29.90,South,173,14.0,15.0,91,0.00,,---,0.00,VWS V14.01,2013-03-12 08:09:00,
2013-03-12 04:14:00,58.2,55.6,29.90,South,170,13.0,14.0,91,0.00,,---,0.00,VWS V14.01,2013-03-12 08:14:00,
2013-03-12 04:19:00,58.1,55.5,29.89,SSE,165,13.0,14.0,91,0.00,,---,0.00,VWS V14.01,2013-03-12 08:19:00,
2013-03-12 04:24:00,58.0,55.7,29.90,South,169,14.0,14.0,92,0.00,,---,0.00,VWS V14.01,2013-03-12 08:24:00,
2013-03-12 04:29:00,58.0,55.4,29.90,South,178,14.0,14.0,91,0.00,,---,0.00,VWS V14.01,2013-03-12 08:29:00,
2013-03-12 04:34:00,57.8,55.2,29.90,South,173,13.0,15.0,91,0.00,,---,0.00,VWS V14.01,2013-03-12 08:34:00,
2013-03-12 04:39:00,57.6,55.3,29.90,SSW,199,12.0,18.0,92,0.00,,---,0.00,VWS V14.01,2013-03-12 08:39:00,
2013-03-12 04:44:00,58.1,55.8,29.90,South,190,12.0,15.0,92,0.01,,---,0.01,VWS V14.01,2013-03-12 08:44:00,
2013-03-12 04:49:00,58.1,56.1,29.90,SSW,208,14.0,17.0,93,0.01,,---,0.01,VWS V14.01,2013-03-12 08:49:00,
2013-03-12 04:54:00,57.8,55.8,29.90,SSW,209,11.0,13.0,93,0.01,,---,0.01,VWS V14.01,2013-03-12 08:54:00,
2013-03-12 04:59:00,57.5,55.5,29.90,SSW,206,9.0,12.0,93,0.01,,---,0.01,VWS V14.01,2013-03-12 08:59:00,
2013-03-12 05:04:00,57.3,55.3,29.90,SSW,205,10.0,10.0,93,0.01,,---,0.01,VWS V14.01,2013-03-12 09:04:00,
2013-03-12 05:09:00,57.5,55.8,29.90,South,183,7.0,14.0,94,0.02,,---,0.02,VWS V14.01,2013-03-12 09:09:00,
2013-03-12 05:14:00,57.7,56.0,29.90,SSW,192,8.0,11.0,94,0.02,,---,0.02,VWS V14.01,2013-03-12 09:14:00,
2013-03-12 05:19:00,57.4,55.7,29.90,South,182,8.0,11.0,94,0.02,,---,0.02,VWS V14.01,2013-03-12 09:19:00,
2013-03-12 05:24:00,57.5,56.1,29.90,SSW,207,15.0,16.0,95,0.02,,---,0.02,VWS V14.01,2013-03-12 09:24:00,
2013-03-12 05:29:00,57.9,56.5,29.91,SSW,209,14.0,14.0,95,0.03,,---,0.03,VWS V14.01,2013-03-12 09:29:00,
2013-03-12 05:34:00,58.2,56.8,29.91,SSW,205,14.0,15.0,95,0.09,,---,0.09,VWS V14.01,2013-03-12 09:34:00,
2013-03-12 05:39:00,58.1,56.7,29.90,South,175,12.0,16.0,95,0.13,,---,0.13,VWS V14.01,2013-03-12 09:39:00,
2013-03-12 05:44:00,57.8,56.4,29.90,South,182,7.0,11.0,95,0.12,,---,0.13,VWS V14.01,2013-03-12 09:44:00,
2013-03-12 05:49:00,57.4,56.0,29.89,South,173,8.0,10.0,95,0.12,,---,0.13,VWS V14.01,2013-03-12 09:49:00,
2013-03-12 05:54:00,57.3,56.2,29.89,SSE,166,8.0,9.0,96,0.12,,---,0.13,VWS V14.01,2013-03-12 09:54:00,
2013-03-12 05:59:00,57.5,56.4,29.89,SSE,163,7.0,9.0,96,0.12,,---,0.13,VWS V14.01,2013-03-12 09:59:00,
2013-03-12 06:04:00,57.4,56.3,29.89,SSE,165,6.0,8.0,96,0.12,,---,0.13,VWS V14.01,2013-03-12 10:04:00,
2013-03-12 06:09:00,56.9,55.5,29.89,South,173,7.0,8.0,95,0.11,,---,0.13,VWS V14.01,2013-03-12 10:09:00,
2013-03-12 06:14:00,57.0,55.9,29.89,South,175,9.0,10.0,96,0.15,,---,0.17,VWS V14.01,2013-03-12 10:14:00,
2013-03-12 06:19:00,57.3,56.2,29.88,SSE,147,10.0,10.0,96,0.17,,---,0.19,VWS V14.01,2013-03-12 10:19:00,
2013-03-12 06:24:00,57.6,56.5,29.88,SSE,148,9.0,11.0,96,0.17,,---,0.19,VWS V14.01,2013-03-12 10:24:00,
2013-03-12 06:29:00,57.6,56.5,29.89,SSE,165,9.0,11.0,96,0.16,,---,0.19,VWS V14.01,2013-03-12 10:29:00,
2013-03-12 06:34:00,58.0,57.2,29.89,South,182,14.0,16.0,97,0.14,,---,0.19,VWS V14.01,2013-03-12 10:34:00,
2013-03-12 06:39:00,58.5,57.7,29.89,South,175,13.0,15.0,97,0.07,,---,0.19,VWS V14.01,2013-03-12 10:39:00,
2013-03-12 06:44:00,59.2,58.3,29.89,SSW,192,13.0,18.0,97,0.07,,---,0.20,VWS V14.01,2013-03-12 10:44:00,
2013-03-12 06:49:00,58.7,57.6,29.89,SSW,198,8.0,13.0,96,0.07,,---,0.20,VWS V14.01,2013-03-12 10:49:00,
2013-03-12 06:54:00,57.9,56.8,29.89,SSW,205,6.0,8.0,96,0.07,,---,0.20,VWS V14.01,2013-03-12 10:54:00,
2013-03-12 06:59:00,57.2,56.1,29.90,SSW,208,4.0,5.0,96,0.07,,---,0.20,VWS V14.01,2013-03-12 10:59:00,
2013-03-12 07:04:00,56.9,55.8,29.90,SSW,192,5.0,6.0,96,0.07,,---,0.20,VWS V14.01,2013-03-12 11:04:00,
2013-03-12 07:10:00,57.1,56.0,29.90,South,186,8.0,9.0,96,0.07,,---,0.20,VWS V14.01,2013-03-12 11:10:00,
2013-03-12 07:14:00,57.2,56.1,29.89,South,184,5.0,8.0,96,0.05,,---,0.20,VWS V14.01,2013-03-12 11:14:00,
2013-03-12 07:20:00,57.3,56.2,29.89,SSW,205,11.0,11.0,96,0.03,,---,0.21,VWS V14.01,2013-03-12 11:20:00,
2013-03-12 07:24:00,57.7,56.6,29.88,SSE,168,14.0,15.0,96,0.02,,---,0.21,VWS V14.01,2013-03-12 11:24:00,
2013-03-12 07:30:00,57.7,56.6,29.88,South,169,16.0,17.0,96,0.02,,---,0.21,VWS V14.01,2013-03-12 11:30:00,
2013-03-12 07:35:00,57.9,57.1,29.88,South,169,15.0,16.0,97,0.02,,---,0.21,VWS V14.01,2013-03-12 11:35:00,
2013-03-12 07:39:00,58.2,57.4,29.88,South,170,19.0,19.0,97,0.02,,---,0.21,VWS V14.01,2013-03-12 11:39:00,
2013-03-12 07:44:00,58.4,57.6,29.88,South,169,15.0,19.0,97,0.02,,---,0.21,VWS V14.01,2013-03-12 11:44:00,
2013-03-12 07:49:00,58.6,57.8,29.88,South,173,15.0,17.0,97,0.01,,---,0.21,VWS V14.01,2013-03-12 11:49:00,
2013-03-12 07:54:00,58.3,57.2,29.88,South,173,15.0,16.0,96,0.01,,---,0.21,VWS V14.01,2013-03-12 11:54:00,
2013-03-12 07:59:00,58.7,57.8,29.88,South,176,14.0,15.0,97,0.01,,---,0.21,VWS V14.01,2013-03-12 11:59:00,
2013-03-12 08:04:00,58.4,57.3,29.87,SSE,168,11.0,13.0,96,0.01,,---,0.21,VWS V14.01,2013-03-12 12:04:00,
2013-03-12 08:09:00,58.1,57.0,29.87,SSE,164,10.0,12.0,96,0.01,,---,0.21,VWS V14.01,2013-03-12 12:09:00,
2013-03-12 08:14:00,57.8,56.7,29.87,SSE,160,10.0,12.0,96,0.01,,---,0.21,VWS V14.01,2013-03-12 12:14:00,
2013-03-12 08:19:00,57.8,56.7,29.88,South,169,9.0,11.0,96,0.01,,---,0.21,VWS V14.01,2013-03-12 12:19:00,
2013-03-12 08:24:00,57.9,56.8,29.88,South,173,11.0,12.0,96,0.00,,---,0.21,VWS V14.01,2013-03-12 12:24:00,
2013-03-12 08:29:00,58.2,57.4,29.88,South,191,12.0,14.0,97,0.00,,---,0.21,VWS V14.01,2013-03-12 12:29:00,
2013-03-12 08:34:00,58.5,57.4,29.88,SSW,200,11.0,14.0,96,0.00,,---,0.21,VWS V14.01,2013-03-12 12:34:00,
2013-03-12 08:39:00,58.5,57.4,29.88,SSW,194,13.0,14.0,96,0.01,,---,0.22,VWS V14.01,2013-03-12 12:39:00,
2013-03-12 08:44:00,58.1,57.0,29.88,South,182,10.0,12.0,96,0.01,,---,0.22,VWS V14.01,2013-03-12 12:44:00,
2013-03-12 08:49:00,57.8,56.7,29.88,South,180,11.0,12.0,96,0.01,,---,0.22,VWS V14.01,2013-03-12 12:49:00,
2013-03-12 08:54:00,57.7,56.6,29.88,South,188,11.0,13.0,96,0.02,,---,0.23,VWS V14.01,2013-03-12 12:54:00,
2013-03-12 08:59:00,57.8,56.7,29.89,South,188,13.0,14.0,96,0.02,,---,0.23,VWS V14.01,2013-03-12 12:59:00,
2013-03-12 09:04:00,57.6,56.5,29.88,SSE,168,8.0,12.0,96,0.03,,---,0.24,VWS V14.01,2013-03-12 13:04:00,
2013-03-12 09:09:00,57.6,56.5,29.88,South,187,10.0,13.0,96,0.04,,---,0.25,VWS V14.01,2013-03-12 13:09:00,
2013-03-12 09:14:00,57.8,56.7,29.88,South,188,12.0,12.0,96,0.04,,---,0.25,VWS V14.01,2013-03-12 13:14:00,
2013-03-12 09:19:00,57.7,56.6,29.88,SSW,194,9.0,12.0,96,0.05,,---,0.26,VWS V14.01,2013-03-12 13:19:00,
2013-03-12 09:24:00,57.8,56.7,29.89,South,190,9.0,14.0,96,0.06,,---,0.27,VWS V14.01,2013-03-12 13:24:00,
2013-03-12 09:29:00,58.6,57.8,29.88,SSW,199,15.0,16.0,97,0.07,,---,0.28,VWS V14.01,2013-03-12 13:29:00,
2013-03-12 09:34:00,58.7,57.8,29.88,SSW,209,13.0,14.0,97,0.08,,---,0.29,VWS V14.01,2013-03-12 13:34:00,
2013-03-12 09:39:00,58.3,57.2,29.88,SSW,207,10.0,12.0,96,0.09,,---,0.30,VWS V14.01,2013-03-12 13:39:00,
2013-03-12 09:44:00,57.9,56.8,29.89,SSW,208,8.0,9.0,96,0.09,,---,0.31,VWS V14.01,2013-03-12 13:44:00,
2013-03-12 09:49:00,58.0,56.9,29.88,SSW,208,8.0,10.0,96,0.09,,---,0.31,VWS V14.01,2013-03-12 13:49:00,
2013-03-12 09:54:00,58.7,57.8,29.88,SSW,207,10.0,11.0,97,0.09,,---,0.31,VWS V14.01,2013-03-12 13:54:00,
2013-03-12 09:59:00,58.8,58.0,29.88,SSW,207,9.0,11.0,97,0.09,,---,0.32,VWS V14.01,2013-03-12 13:59:00,
2013-03-12 10:04:00,58.3,57.2,29.88,SSW,201,9.0,9.0,96,0.09,,---,0.32,VWS V14.01,2013-03-12 14:04:00,
2013-03-12 10:09:00,58.2,57.4,29.88,SSW,202,9.0,11.0,97,0.09,,---,0.33,VWS V14.01,2013-03-12 14:09:00,
2013-03-12 10:14:00,58.0,57.2,29.88,SSW,198,9.0,11.0,97,0.09,,---,0.34,VWS V14.01,2013-03-12 14:14:00,
2013-03-12 10:19:00,58.3,57.5,29.88,SSW,196,12.0,12.0,97,0.09,,---,0.35,VWS V14.01,2013-03-12 14:19:00,
2013-03-12 10:24:00,58.3,57.5,29.88,SSW,207,17.0,17.0,97,0.14,,---,0.40,VWS V14.01,2013-03-12 14:24:00,
2013-03-12 10:29:00,59.2,58.3,29.87,SSW,209,13.0,17.0,97,0.18,,---,0.46,VWS V14.01,2013-03-12 14:29:00,
2013-03-12 10:34:00,59.2,58.3,29.88,SSW,209,12.0,14.0,97,0.18,,---,0.47,VWS V14.01,2013-03-12 14:34:00,
2013-03-12 10:39:00,59.2,58.3,29.87,SSW,203,11.0,14.0,97,0.19,,---,0.49,VWS V14.01,2013-03-12 14:39:00,
2013-03-12 10:44:00,59.1,58.2,29.87,SSW,209,12.0,12.0,97,0.23,,---,0.54,VWS V14.01,2013-03-12 14:44:00,
2013-03-12 10:49:00,58.9,58.0,29.87,SW,220,11.0,12.0,97,0.24,,---,0.55,VWS V14.01,2013-03-12 14:49:00,
2013-03-12 10:54:00,58.4,57.3,29.87,SSW,213,9.0,11.0,96,0.25,,---,0.56,VWS V14.01,2013-03-12 14:54:00,
2013-03-12 10:59:00,58.1,57.3,29.87,SSW,207,9.0,9.0,97,0.26,,---,0.58,VWS V14.01,2013-03-12 14:59:00,
2013-03-12 11:04:00,58.0,57.2,29.87,SSW,199,7.0,9.0,97,0.27,,---,0.59,VWS V14.01,2013-03-12 15:04:00,
2013-03-12 11:09:00,57.8,57.0,29.88,SW,223,10.0,11.0,97,0.31,,---,0.63,VWS V14.01,2013-03-12 15:09:00,
2013-03-12 11:14:00,58.0,57.2,29.88,WSW,237,14.0,14.0,97,0.34,,---,0.67,VWS V14.01,2013-03-12 15:14:00,
2013-03-12 11:19:00,58.1,57.3,29.88,WSW,242,10.0,11.0,97,0.34,,---,0.69,VWS V14.01,2013-03-12 15:19:00,
2013-03-12 11:24:00,58.4,57.6,29.88,SW,233,11.0,12.0,97,0.33,,---,0.69,VWS V14.01,2013-03-12 15:24:00,
2013-03-12 11:29:00,58.7,57.8,29.88,SW,222,15.0,15.0,97,0.25,,---,0.70,VWS V14.01,2013-03-12 15:29:00,
2013-03-12 11:34:00,58.2,57.4,29.88,SW,227,11.0,14.0,97,0.24,,---,0.71,VWS V14.01,2013-03-12 15:34:00,
2013-03-12 11:39:00,58.0,57.2,29.88,SW,232,11.0,15.0,97,0.23,,---,0.71,VWS V14.01,2013-03-12 15:39:00,
2013-03-12 11:44:00,57.5,56.7,29.88,SW,219,11.0,13.0,97,0.18,,---,0.71,VWS V14.01,2013-03-12 15:44:00,
2013-03-12 11:49:00,57.7,56.9,29.87,SW,218,12.0,15.0,97,0.17,,---,0.71,VWS V14.01,2013-03-12 15:49:00,
2013-03-12 11:54:00,58.0,57.2,29.87,SW,221,15.0,16.0,97,0.16,,---,0.71,VWS V14.01,2013-03-12 15:54:00,
2013-03-12 11:59:00,57.8,57.0,29.87,SW,220,15.0,17.0,97,0.14,,---,0.71,VWS V14.01,2013-03-12 15:59:00,
2013-03-12 12:04:00,57.4,56.6,29.87,SW,221,15.0,15.0,97,0.14,,---,0.73,VWS V14.01,2013-03-12 16:04:00,
2013-03-12 12:09:00,57.5,56.7,29.87,SW,224,17.0,18.0,97,0.14,,---,0.74,VWS V14.01,2013-03-12 16:09:00,
2013-03-12 12:14:00,57.8,57.0,29.87,SW,216,19.0,19.0,97,0.10,,---,0.76,VWS V14.01,2013-03-12 16:14:00,
2013-03-12 12:19:00,57.8,57.0,29.87,SW,225,15.0,19.0,97,0.09,,---,0.77,VWS V14.01,2013-03-12 16:19:00,
2013-03-12 12:24:00,57.7,56.9,29.87,SW,227,17.0,18.0,97,0.08,,---,0.77,VWS V14.01,2013-03-12 16:24:00,
2013-03-12 12:29:00,58.1,57.3,29.86,SW,217,19.0,20.0,97,0.08,,---,0.77,VWS V14.01,2013-03-12 16:29:00,
2013-03-12 12:34:00,58.3,57.7,29.86,SW,221,18.0,21.0,98,0.07,,---,0.78,VWS V14.01,2013-03-12 16:34:00,
2013-03-12 12:39:00,58.3,57.5,29.86,SW,223,17.0,21.0,97,0.07,,---,0.78,VWS V14.01,2013-03-12 16:39:00,
2013-03-12 12:44:00,58.1,57.3,29.86,SW,222,15.0,18.0,97,0.07,,---,0.78,VWS V14.01,2013-03-12 16:44:00,
2013-03-12 12:49:00,58.0,57.2,29.86,SW,228,16.0,19.0,97,0.07,,---,0.78,VWS V14.01,2013-03-12 16:49:00,
2013-03-12 12:54:00,58.0,57.2,29.86,WSW,238,12.0,15.0,97,0.07,,---,0.78,VWS V14.01,2013-03-12 16:54:00,
2013-03-12 12:59:00,57.8,57.0,29.86,SW,228,16.0,16.0,97,0.08,,---,0.79,VWS V14.01,2013-03-12 16:59:00,
2013-03-12 13:04:00,57.9,57.1,29.85,SW,227,14.0,18.0,97,0.07,,---,0.79,VWS V14.01,2013-03-12 17:04:00,
2013-03-12 13:09:00,57.6,56.8,29.85,SW,235,13.0,14.0,97,0.06,,---,0.79,VWS V14.01,2013-03-12 17:09:00,
2013-03-12 13:14:00,57.6,56.8,29.85,SW,222,14.0,16.0,97,0.04,,---,0.79,VWS V14.01,2013-03-12 17:14:00,
2013-03-12 13:19:00,57.3,56.5,29.85,SW,236,10.0,14.0,97,0.03,,---,0.79,VWS V14.01,2013-03-12 17:19:00,
2013-03-12 13:24:00,57.0,56.2,29.85,SW,229,11.0,13.0,97,0.02,,---,0.79,VWS V14.01,2013-03-12 17:24:00,
2013-03-12 13:29:00,56.8,56.0,29.85,WSW,241,7.0,10.0,97,0.02,,---,0.79,VWS V14.01,2013-03-12 17:29:00,
2013-03-12 13:34:00,56.7,55.9,29.85,SW,236,10.0,10.0,97,0.01,,---,0.79,VWS V14.01,2013-03-12 17:34:00,
2013-03-12 13:39:00,56.8,56.0,29.85,WSW,238,9.0,9.0,97,0.01,,---,0.79,VWS V14.01,2013-03-12 17:39:00,
2013-03-12 13:44:00,56.7,55.9,29.84,WSW,240,7.0,10.0,97,0.01,,---,0.79,VWS V14.01,2013-03-12 17:44:00,
2013-03-12 13:49:00,56.5,55.7,29.84,WSW,257,9.0,10.0,97,0.01,,---,0.79,VWS V14.01,2013-03-12 17:49:00,
2013-03-12 13:54:00,56.4,55.6,29.84,WSW,251,9.0,9.0,97,0.01,,---,0.79,VWS V14.01,2013-03-12 17:54:00,
2013-03-12 13:59:00,56.3,55.5,29.83,WSW,247,5.0,8.0,97,0.01,,---,0.79,VWS V14.01,2013-03-12 17:59:00,
2013-03-12 14:04:00,56.2,55.4,29.83,WSW,247,6.0,7.0,97,0.00,,---,0.79,VWS V14.01,2013-03-12 18:04:00,
2013-03-12 14:09:00,56.2,55.4,29.83,WSW,250,4.0,7.0,97,0.00,,---,0.79,VWS V14.01,2013-03-12 18:09:00,
2013-03-12 14:14:00,56.2,55.4,29.83,WSW,250,7.0,7.0,97,0.00,,---,0.79,VWS V14.01,2013-03-12 18:14:00,
2013-03-12 14:19:00,56.3,55.5,29.82,WSW,252,6.0,8.0,97,0.00,,---,0.79,VWS V14.01,2013-03-12 18:19:00,
2013-03-12 14:24:00,56.3,55.5,29.82,West,261,7.0,8.0,97,0.00,,---,0.79,VWS V14.01,2013-03-12 18:24:00,
2013-03-12 14:29:00,56.3,55.5,29.82,WSW,250,8.0,8.0,97,0.00,,---,0.79,VWS V14.01,2013-03-12 18:29:00,
2013-03-12 14:34:00,56.3,55.5,29.82,WSW,252,5.0,6.0,97,0.00,,---,0.79,VWS V14.01,2013-03-12 18:34:00,
2013-03-12 14:39:00,56.2,55.4,29.81,WSW,239,4.0,5.0,97,0.00,,---,0.79,VWS V14.01,2013-03-12 18:39:00,
2013-03-12 14:44:00,56.3,55.5,29.81,WSW,246,4.0,5.0,97,0.00,,---,0.79,VWS V14.01,2013-03-12 18:44:00,
2013-03-12 14:49:00,56.4,55.6,29.80,WSW,248,3.0,4.0,97,0.00,,---,0.79,VWS V14.01,2013-03-12 18:49:00,
2013-03-12 14:54:00,56.5,55.7,29.80,WSW,241,1.0,2.0,97,0.00,,---,0.79,VWS V14.01,2013-03-12 18:54:00,
2013-03-12 14:59:00,56.6,55.8,29.80,WSW,238,0.0,3.0,97,0.00,,---,0.79,VWS V14.01,2013-03-12 18:59:00,
2013-03-12 15:04:00,56.5,55.7,29.80,WSW,238,2.0,2.0,97,0.00,,---,0.79,VWS V14.01,2013-03-12 19:04:00,
2013-03-12 15:09:00,56.2,55.4,29.80,WSW,238,1.0,2.0,97,0.00,,---,0.79,VWS V14.01,2013-03-12 19:09:00,
2013-03-12 15:14:00,56.2,55.4,29.79,WSW,238,1.0,3.0,97,0.00,,---,0.79,VWS V14.01,2013-03-12 19:14:00,
2013-03-12 15:19:00,56.1,55.3,29.79,SW,225,6.0,6.0,97,0.00,,---,0.79,VWS V14.01,2013-03-12 19:19:00,
2013-03-12 15:24:00,56.5,55.7,29.79,WSW,240,5.0,6.0,97,0.00,,---,0.79,VWS V14.01,2013-03-12 19:24:00,
2013-03-12 15:29:00,56.7,55.9,29.79,SW,235,7.0,8.0,97,0.00,,---,0.79,VWS V14.01,2013-03-12 19:29:00,
2013-03-12 15:34:00,56.8,56.0,29.79,SW,234,7.0,7.0,97,0.00,,---,0.79,VWS V14.01,2013-03-12 19:34:00,
2013-03-12 15:39:00,56.9,56.1,29.79,SW,235,5.0,7.0,97,0.00,,---,0.79,VWS V14.01,2013-03-12 19:39:00,
2013-03-12 15:44:00,56.9,56.1,29.78,WSW,240,4.0,6.0,97,0.00,,---,0.79,VWS V14.01,2013-03-12 19:44:00,
2013-03-12 15:49:00,56.9,56.1,29.78,WSW,242,6.0,6.0,97,0.00,,---,0.79,VWS V14.01,2013-03-12 19:49:00,
2013-03-12 15:54:00,57.1,56.3,29.78,SW,236,6.0,8.0,97,0.00,,---,0.79,VWS V14.01,2013-03-12 19:54:00,
2013-03-12 15:59:00,56.9,56.1,29.78,WSW,239,6.0,6.0,97,0.00,,---,0.79,VWS V14.01,2013-03-12 19:59:00,
2013-03-12 16:04:00,56.9,56.1,29.77,WSW,240,5.0,6.0,97,0.00,,---,0.79,VWS V14.01,2013-03-12 20:04:00,
2013-03-12 16:09:00,56.9,56.1,29.77,WSW,246,6.0,6.0,97,0.00,,---,0.79,VWS V14.01,2013-03-12 20:09:00,